Weather in Lielvarde

Latvia     56°43′03″N   24°48′38″E
temp.,
°C
wind,
m/s
gust,
m/s
humid.,
%
clouds,
%
prec.,
mm/h
press.,
hPa
HPBL,
m
13 april, tue
tue1300:00+9se1189100 0.3 101816
03:00+7nnw4892100 0.4 1019329
06:00+4nw4990100 0.1 1020413
09:00+4nw3891100 0.6 1022508
12:00+5nnw3681100 0.3 1022459
15:00+6nnw3770100 0.3 1023749
18:00+4n2774100 0.4 1023872
21:00+2nne2788100 1.6 1023490
14 april, wed
wed1400:00+2ne1586100 0.0 1022220
03:00+2nnw1286100 0.0 102164
06:00+2nnw2687100 0.0 1021190
09:00+4n357282 0.0 1021434
12:00+7n3553100 0.0 10211102
15:00+9nne4643100 0.0 10211589
18:00+8n3652100 0.0 10211283
21:00+6n2567100 0.0 1022125
15 april, thu
thu1500:00+5nne397189 0.0 1022498
03:00+4nne41066100 0.0 1022623
06:00+4nne41270100 0.0 1022696
09:00+5nne41266100 0.0 1023729
12:00+7ne51256100 0.0 1023849
15:00+11ne694392 0.0 10221326
18:00+7ne41053100 0.1 10231066
21:00
16 april, fri
fri1600:00+7ne51265100 0.3 1022735
03:00+6ne41268100 0.3 1022644
06:00+5ne41274100 0.0 1022607
09:00+5ne41282100 0.3 1023609
12:00+6ne41283100 0.6 1023527
15:00+12ne5863100 0.7 1023825
18:00+12ne4961100 0.0 10231134
21:00+9ene4115761 0.0 1026494
17 april, sat
sat1700:00+9ene41256100 0.0 1025619
03:00+6ene41264100 0.0 1026437
06:00+4ne4117222 0.0 1026379
09:00+8ene5106215 0.0 1027516
12:00+13e57496 0.0 10281009
15:00+15e57425 0.0 10281483
18:00+15e47405 0.0 10281490
21:00+9ene38645 0.0 1029172